QPF
0.00 0.00 0.00 0.00 0.00 0.00 0.00 0.00 0.00 0.00 0.00 0.00 0.00 0.00 0.00 0.00 0.00 0.00 0.00 0.00 0.00 0.00 0.00 0.00 0.00 0.00 0.00 0.00 0.00 0.00 0.00 0.00 0.00 0.00 0.00 0.00 0.00 0.00 0.03 0.03 0.01 0.00 0.00 0.00
0.00 0.00 0.00 0.00 0.00 0.00 0.00 0.00 0.00 0.00 0.00 0.00 0.00 0.00 0.00 0.00 0.00 0.00 0.00 0.00 0.00 0.00 0.00 0.00 0.00 0.00 0.00 0.00 0.00 0.00 0.00 0.00 0.00 0.00 0.00 0.00 0.00 0.00 0.04 0.00 0.00 0.00 0.00 0.00
0.00 0.00 0.00 0.00 0.00 0.00 0.00 0.00 0.00 0.00 0.00 0.00 0.00 0.00 0.00 0.00 0.00 0.00 0.00 0.00 0.00 0.00 0.00 0.00 0.00 0.00 0.00 0.00 0.00 0.00 0.00 0.00 0.00 0.00 0.00 0.00 0.00 0.00 0.00 0.00 0.01 0.00 0.00 0.00
0.00 0.00 0.00 0.00 0.00 0.00 0.00 0.00 0.00 0.00 0.00 0.00 0.00 0.00 0.00 0.00 0.00 0.00 0.00 0.00 0.00 0.00 0.00 0.00 0.00 0.00 0.00 0.00 0.00 0.00 0.00 0.00 0.00 0.00 0.00 0.00 0.01 0.00 0.00 0.02 0.05 0.00 0.00 0.00
0.00 0.00 0.00 0.00 0.00 0.00 0.00 0.00 0.00 0.00 0.00 0.00 0.00 0.00 0.00 0.00 0.00 0.00 0.00 0.00 0.00 0.00 0.00 0.00 0.00 0.00 0.00 0.00 0.00 0.00 0.00 0.00 0.00 0.00 0.00 0.01 0.01 0.00 0.00 0.00 0.00 0.00 0.00 0.00
0.00 0.00 0.00 0.00 0.00 0.00 0.00 0.00 0.00 0.00 0.00 0.00 0.00 0.00 0.00 0.00 0.00 0.00 0.00 0.00 0.00 0.00 0.00 0.00 0.00 0.00 0.00 0.00 0.00 0.00 0.00 0.00 0.00 0.00 0.00 0.00 0.00 0.00 0.00 0.00 0.00 0.00 0.00 0.00
0.00 0.00 0.00 0.00 0.00 0.00 0.00 0.00 0.00 0.00 0.00 0.00 0.00 0.00 0.00 0.00 0.00 0.00 0.00 0.00 0.00 0.00 0.00 0.00 0.00 0.00 0.00 0.00 0.00 0.00 0.00 0.00 0.00 0.00 0.00 0.00 0.00 0.00 0.00 0.00 0.00 0.00 0.00 0.00
0.00 0.00 0.00 0.00 0.00 0.00 0.00 0.00 0.00 0.00 0.00 0.00 0.00 0.00 0.00 0.00 0.00 0.00 0.00 0.00 0.00 0.00 0.00 0.00 0.00 0.00 0.00 0.00 0.00 0.00 0.00 0.00 0.00 0.00 0.00 0.00 0.00 0.00 0.00 0.00 0.00 0.00 0.00 0.00
0.00 0.00 0.00 0.00 0.00 0.00 0.00 0.00 0.00 0.00 0.00 0.00 0.00 0.00 0.00 0.00 0.00 0.00 0.00 0.00 0.00 0.00 0.00 0.00 0.00 0.00 0.00 0.00 0.00 0.00 0.00 0.00 0.00 0.00 0.00 0.00 0.00 0.00 0.00 0.00 0.00 0.01 0.00 0.00
0.00 0.00 0.00 0.00 0.00 0.00 0.00 0.00 0.00 0.00 0.00 0.00 0.00 0.00 0.00 0.00 0.00 0.00 0.00 0.00 0.00 0.00 0.00 0.00 0.00 0.00 0.00 0.00 0.00 0.00 0.00 0.00 0.00 0.00 0.00 0.00 0.00 0.00 0.00 0.00 0.00 0.00 0.00 0.00
0.00 0.00 0.00 0.00 0.00 0.00 0.00 0.00 0.00 0.00 0.00 0.00 0.00 0.00 0.00 0.00 0.00 0.00 0.00 0.00 0.00 0.00 0.00 0.00 0.00 0.00 0.00 0.00 0.00 0.00 0.00 0.00 0.00 0.00 0.00 0.00 0.00 0.00 0.00 0.00 0.00 0.00 0.00 0.00
0.00 0.00 0.00 0.00 0.00 0.00 0.00 0.00 0.00 0.00 0.00 0.00 0.00 0.00 0.00 0.00 0.00 0.00 0.00 0.00 0.00 0.00 0.00 0.00 0.00 0.00 0.00 0.00 0.00 0.00 0.00 0.00 0.00 0.00 0.00 0.00 0.00 0.00 0.00 0.00 0.00 0.00 0.00 0.00
0.00 0.00 0.00 0.00 0.00 0.00 0.00 0.00 0.00 0.00 0.00 0.00 0.00 0.00 0.00 0.00 0.00 0.00 0.00 0.00 0.00 0.00 0.00 0.00 0.00 0.00 0.00 0.00 0.00 0.00 0.00 0.00 0.00 0.00 0.01 0.00 0.00 0.00 0.00 0.00 0.00 0.00 0.00 0.00
0.00 0.00 0.00 0.00 0.00 0.00 0.00 0.00 0.00 0.00 0.00 0.00 0.00 0.00 0.00 0.00 0.00 0.00 0.00 0.00 0.00 0.00 0.00 0.00 0.00 0.00 0.00 0.00 0.00 0.00 0.00 0.00 0.00 0.00 0.01 0.01 0.00 0.00 0.00 0.00 0.00 0.00 0.00 0.00
0.00 0.00 0.00 0.00 0.00 0.00 0.00 0.00 0.00 0.00 0.00 0.00 0.00 0.00 0.00 0.00 0.00 0.00 0.00 0.00 0.00 0.00 0.00 0.00 0.00 0.00 0.00 0.00 0.00 0.00 0.00 0.00 0.00 0.00 0.00 0.00 0.00 0.00 0.00 0.00 0.00 0.00 0.00 0.00
0.00 0.00 0.00 0.00 0.00 0.00 0.00 0.00 0.00 0.00 0.00 0.00 0.00 0.00 0.00 0.00 0.00 0.00 0.00 0.00 0.00 0.00 0.00 0.00 0.00 0.00 0.00 0.00 0.00 0.00 0.00 0.00 0.01 0.00 0.00 0.00 0.00 0.00 0.00 0.00 0.00 0.00 0.00 0.00
0.00 0.00 0.00 0.00 0.00 0.00 0.00 0.00 0.00 0.00 0.00 0.00 0.00 0.00 0.00 0.00 0.00 0.00 0.00 0.00 0.00 0.00 0.00 0.00 0.00 0.00 0.00 0.00 0.00 0.00 0.00 0.00 0.00 0.00 0.00 0.00 0.00 0.00 0.00 0.00 0.00 0.00 0.00 0.00
0.00 0.00 0.00 0.00 0.00 0.00 0.00 0.00 0.00 0.00 0.00 0.00 0.00 0.00 0.00 0.00 0.00 0.00 0.00 0.00 0.00 0.00 0.00 0.00 0.00 0.00 0.00 0.00 0.00 0.00 0.00 0.00 0.00 0.00 0.00 0.00 0.00 0.00 0.00 0.00 0.00 0.00 0.00 0.00
0.00 0.00 0.00 0.00 0.00 0.00 0.00 0.00 0.00 0.00 0.00 0.00 0.00 0.00 0.00 0.00 0.00 0.00 0.00 0.00 0.00 0.00 0.00 0.00 0.00 0.00 0.00 0.00 0.00 0.00 0.00 0.00 0.01 0.01 0.00 0.00 0.00 0.00 0.00 0.00 0.00 0.00 0.00 0.00
0.00 0.00 0.00 0.00 0.00 0.00 0.00 0.00 0.00 0.00 0.00 0.00 0.00 0.00 0.00 0.00 0.00 0.00 0.00 0.00 0.00 0.00 0.00 0.00 0.00 0.00 0.00 0.00 0.00 0.00 0.00 0.02 0.08 0.10 0.09 0.00 0.00 0.00 0.00 0.00 0.00 0.00 0.00 0.00
0.00 0.00 0.00 0.00 0.00 0.00 0.00 0.00 0.00 0.00 0.00 0.00 0.00 0.00 0.00 0.00 0.00 0.00 0.00 0.00 0.00 0.00 0.00 0.00 0.00 0.00 0.00 0.00 0.00 0.00 0.01 0.11 0.15 0.12 0.01 0.02 0.02 0.00 0.00 0.00 0.00 0.00 0.00 0.00
0.00 0.00 0.00 0.00 0.00 0.00 0.00 0.00 0.00 0.00 0.00 0.00 0.01 0.00 0.00 0.00 0.00 0.00 0.00 0.00 0.00 0.00 0.00 0.00 0.00 0.00 0.00 0.00 0.00 0.00 0.04 0.05 0.08 0.02 0.03 0.06 0.03 0.01 0.00 0.00 0.00 0.00 0.00 0.00
0.00 0.00 0.00 0.00 0.00 0.00 0.00 0.00 0.00 0.00 0.00 0.00 0.01 0.01 0.00 0.00 0.00 0.00 0.00 0.00 0.00 0.00 0.00 0.00 0.00 0.00 0.00 0.00 0.00 0.01 0.03 0.03 0.05 0.05 0.05 0.03 0.02 0.03 0.01 0.00 0.00 0.00 0.00 0.00
0.00 0.00 0.00 0.00 0.00 0.00 0.00 0.00 0.00 0.00 0.00 0.01 0.00 0.00 0.00 0.00 0.00 0.00 0.00 0.00 0.00 0.00 0.00 0.00 0.00 0.00 0.00 0.00 0.01 0.01 0.04 0.09 0.05 0.01 0.02 0.02 0.03 0.02 0.00 0.00 0.00 0.00 0.00 0.00
0.00 0.00 0.00 0.00 0.00 0.00 0.00 0.00 0.00 0.01 0.02 0.03 0.01 0.00 0.00 0.00 0.00 0.00 0.00 0.00 0.00 0.00 0.00 0.00 0.00 0.00 0.01 0.03 0.04 0.02 0.08 0.04 0.00 0.00 0.00 0.02 0.01 0.00 0.00 0.00 0.00 0.00 0.00 0.00
0.00 0.00 0.00 0.00 0.00 0.00 0.00 0.00 0.00 0.00 0.00 0.01 0.00 0.01 0.00 0.00 0.00 0.00 0.00 0.00 0.00 0.00 0.00 0.00 0.00 0.00 0.01 0.03 0.03 0.02 0.08 0.02 0.01 0.00 0.00 0.00 0.00 0.00 0.00 0.00 0.00 0.00 0.00 0.00
MSLP
1000.88 1000.35 999.65 999.29 999.53 999.72 1000.09 1000.30 1000.23 1000.31 1000.81 1001.27 1000.94 1001.08 1001.56 1003.06 1003.75 1004.06 1004.53 1005.00 1005.29 1005.58 1006.22 1007.06 1008.05 1008.75 1009.42 1010.11 1010.80 1011.58 1012.23 1012.80 1013.55 1013.89 1013.94 1014.09 1014.14 1014.45 1014.58 1014.87 1015.47 1015.61 1015.68 1015.81
1000.68 999.74 999.30 999.43 999.76 1000.10 1000.14 1000.04 999.96 1000.12 1000.64 1000.92 1000.13 1000.05 1000.37 1001.40 1002.54 1002.91 1003.46 1004.02 1004.28 1004.61 1005.29 1006.35 1007.17 1007.95 1008.76 1009.55 1010.32 1011.14 1011.80 1012.54 1013.25 1013.38 1013.88 1013.74 1014.11 1014.26 1014.79 1014.98 1015.82 1015.58 1015.57 1015.70
999.88 999.44 999.65 1000.00 999.99 999.97 999.65 999.65 999.74 1000.05 1000.05 999.83 999.78 998.36 999.37 1000.29 1001.41 1002.08 1002.58 1003.11 1003.50 1003.79 1004.25 1005.25 1006.28 1007.05 1007.86 1008.78 1009.66 1010.50 1011.26 1011.95 1012.74 1012.96 1013.91 1014.25 1014.42 1014.91 1015.41 1015.69 1015.88 1015.76 1015.49 1015.79
1000.06 999.74 1000.22 1000.05 999.74 999.76 999.15 999.02 1000.03 1000.00 999.78 998.78 999.42 998.14 997.89 999.15 1000.21 1001.08 1001.59 1002.03 1002.51 1003.33 1003.80 1004.29 1005.26 1006.07 1006.83 1007.79 1009.01 1009.80 1010.71 1011.47 1012.26 1012.80 1013.11 1013.38 1013.58 1013.92 1014.69 1015.21 1015.44 1015.72 1015.63 1015.68
1000.06 1000.45 1000.32 1000.02 999.64 999.63 999.48 999.68 1000.09 1000.01 999.60 998.85 998.50 998.25 997.15 997.98 998.54 999.35 1000.14 1000.65 1001.35 1002.00 1002.98 1003.37 1004.03 1004.91 1005.79 1006.92 1008.19 1009.04 1010.13 1011.03 1011.65 1012.29 1012.43 1012.97 1013.21 1013.30 1013.83 1014.52 1015.09 1015.48 1015.58 1015.44
1000.41 1001.17 1000.67 999.99 1000.01 1000.01 999.90 1000.17 1000.15 999.92 999.54 998.49 997.76 997.47 996.53 996.15 996.92 997.55 998.28 999.38 1000.19 1000.82 1001.87 1002.58 1003.37 1004.17 1004.98 1006.11 1007.46 1008.46 1009.51 1010.40 1011.09 1011.85 1012.22 1012.45 1012.83 1013.14 1013.41 1014.03 1014.52 1014.97 1015.51 1015.68
1000.51 1000.71 1000.67 1000.76 1000.19 1000.05 1000.03 999.47 998.79 998.53 998.16 997.47 997.00 997.31 996.27 995.87 996.05 996.11 997.04 997.78 998.76 999.72 1000.64 1001.81 1002.34 1003.24 1004.50 1005.47 1006.74 1007.75 1008.96 1009.82 1010.58 1011.27 1011.80 1012.22 1012.60 1013.13 1013.49 1013.86 1013.97 1014.18 1014.51 1014.89
1000.25 999.61 999.98 1000.06 1000.01 999.28 999.17 998.98 998.02 997.35 997.01 996.64 996.69 996.67 996.00 995.81 995.84 995.92 996.76 997.53 998.02 999.00 999.73 1000.74 1001.79 1002.59 1003.92 1004.97 1006.17 1007.08 1008.38 1009.35 1010.03 1010.69 1011.26 1011.93 1012.46 1012.79 1013.09 1013.78 1013.42 1014.04 1014.21 1014.88
1000.30 1000.12 1000.07 1000.26 999.87 999.80 998.92 998.99 998.59 997.70 997.17 996.62 996.25 995.84 996.28 995.94 995.38 995.30 995.87 996.70 997.52 998.33 999.06 999.89 1000.89 1001.76 1003.06 1004.41 1005.52 1006.51 1007.74 1008.84 1009.64 1010.25 1011.01 1011.58 1012.14 1012.42 1012.73 1013.38 1014.06 1014.21 1014.81 1015.53
1001.44 1000.86 999.99 999.60 1000.15 1000.01 999.44 998.92 998.36 998.00 997.02 996.09 995.75 995.44 995.19 995.18 995.11 995.08 995.39 996.18 996.97 997.96 998.58 999.24 1000.18 1001.37 1002.50 1003.76 1004.95 1006.17 1007.27 1007.99 1008.80 1009.44 1010.23 1010.90 1011.62 1012.27 1012.77 1013.49 1014.06 1014.76 1015.41 1015.88
1002.30 1001.48 1000.10 1000.13 999.36 998.62 999.13 998.95 998.52 997.53 996.71 995.85 995.26 994.47 994.33 995.01 995.18 995.12 995.39 996.40 996.82 997.69 998.29 998.93 999.87 1001.06 1002.19 1003.21 1004.38 1005.56 1006.66 1007.39 1008.15 1008.84 1009.66 1010.42 1011.19 1011.96 1012.93 1013.54 1014.32 1014.94 1015.74 1016.31
1003.24 1002.10 1000.32 999.29 999.04 999.30 998.72 997.95 997.74 997.12 997.02 996.75 996.01 994.65 994.65 995.05 995.20 995.71 996.05 996.53 996.81 997.45 998.15 998.86 999.75 1000.73 1002.00 1002.94 1003.95 1004.94 1006.01 1006.78 1007.46 1008.25 1009.36 1010.16 1011.08 1012.19 1012.89 1013.43 1013.98 1014.65 1015.30 1016.03
1003.78 1002.18 1000.75 999.10 999.19 999.54 999.03 998.24 997.96 997.22 996.75 996.17 995.58 995.02 995.02 995.10 995.69 996.04 996.25 996.52 996.99 997.40 998.01 998.75 999.55 1000.50 1001.86 1002.90 1003.83 1004.62 1005.52 1006.23 1006.86 1008.02 1008.95 1009.99 1010.84 1011.61 1012.67 1013.56 1014.31 1014.89 1015.55 1016.20
1005.08 1002.79 1001.63 1000.24 999.46 999.70 999.41 998.87 998.40 997.78 996.57 996.14 995.57 995.41 995.44 995.48 995.62 995.85 996.62 996.89 997.11 997.45 997.61 998.27 999.29 1000.46 1001.66 1002.67 1003.53 1004.17 1004.91 1005.83 1006.54 1007.47 1008.30 1009.58 1010.44 1011.30 1012.11 1013.48 1014.32 1014.99 1015.45 1016.06
1004.55 1003.35 1002.42 1001.49 1000.91 1000.31 999.78 999.14 998.57 997.92 997.30 996.41 995.66 995.17 995.48 995.71 996.62 997.17 997.64 997.47 997.30 997.29 997.34 997.85 998.63 999.83 1001.27 1002.14 1003.13 1003.91 1004.40 1005.32 1006.20 1007.39 1008.65 1009.90 1010.93 1012.20 1012.72 1012.78 1014.04 1014.98 1015.45 1016.05
1004.34 1003.66 1003.14 1002.30 1001.52 1000.41 999.70 998.82 998.04 997.74 997.40 997.08 996.53 996.04 996.03 996.70 997.44 997.61 997.71 997.68 997.43 997.16 997.40 997.74 998.53 999.34 1000.45 1001.40 1002.27 1003.25 1004.12 1005.36 1006.44 1007.74 1008.87 1009.96 1011.09 1012.12 1012.80 1013.13 1014.01 1014.61 1015.19 1015.91
1004.74 1003.93 1003.15 1002.06 1001.36 1000.24 999.43 998.49 997.55 997.48 997.26 997.25 996.68 996.36 997.00 997.27 997.47 997.66 997.80 997.92 997.82 997.61 997.09 997.48 998.14 998.83 999.68 1000.36 1001.60 1002.71 1004.10 1005.54 1006.60 1007.69 1008.84 1009.96 1011.00 1012.31 1013.50 1013.90 1014.50 1014.62 1014.95 1015.67
1004.56 1004.21 1003.78 1002.65 1001.95 1000.26 999.13 998.54 998.53 998.08 997.65 997.83 997.83 997.62 998.05 997.80 997.62 997.62 998.35 998.28 998.21 997.99 997.55 997.38 997.88 998.53 999.64 1000.32 1001.71 1003.15 1004.39 1005.85 1006.97 1008.04 1009.02 1009.94 1011.11 1012.33 1013.31 1013.76 1014.46 1015.18 1015.26 1015.78
1004.26 1004.34 1003.53 1002.77 1001.49 1000.32 999.34 998.81 998.97 998.60 998.00 998.53 998.57 998.63 998.40 997.93 997.12 998.02 998.22 998.48 998.28 997.99 997.62 997.34 997.73 998.42 999.55 1000.33 1001.97 1003.57 1004.77 1005.89 1006.97 1008.14 1009.13 1010.39 1011.50 1012.51 1013.05 1013.50 1014.12 1014.92 1015.44 1015.60
1003.93 1004.26 1003.80 1002.62 1001.60 1000.09 999.09 999.99 1000.27 1000.04 998.89 998.88 999.55 999.50 999.35 998.63 996.98 997.73 998.53 998.59 998.26 997.71 997.38 997.41 997.84 998.73 1000.01 1000.93 1002.65 1003.84 1004.60 1005.79 1007.01 1008.52 1009.72 1010.70 1012.31 1013.52 1014.02 1014.08 1014.03 1014.48 1015.32 1015.75
1003.77 1003.82 1003.28 1002.32 1001.62 1000.43 999.76 1000.43 1000.66 1000.39 1000.28 1000.69 1000.63 1000.57 1000.42 1000.13 1000.37 1000.05 999.64 999.42 998.88 998.29 998.05 998.30 998.68 999.37 1000.59 1002.05 1002.88 1003.65 1004.76 1005.79 1006.94 1008.07 1009.12 1009.93 1011.39 1013.75 1014.30 1015.09 1014.92 1014.62 1014.77 1015.31
1003.52 1002.94 1002.13 1002.04 1001.41 1000.50 1000.89 1001.00 1000.90 1001.18 1001.31 1001.71 1001.74 1001.42 1001.15 1000.85 1000.49 1000.33 1000.28 1000.52 1000.32 999.69 999.44 999.53 1000.00 1000.90 1001.94 1002.56 1002.90 1003.89 1004.80 1005.78 1006.70 1007.96 1009.21 1008.95 1007.84 1011.46 1013.13 1014.52 1015.15 1014.78 1014.74 1015.15
1003.99 1003.33 1002.75 1001.96 1001.11 1001.88 1001.78 1001.75 1001.81 1002.00 1002.05 1002.20 1002.83 1002.29 1001.73 1001.10 1000.62 1000.82 1000.56 1001.03 1001.56 1001.37 1001.13 1001.28 1001.48 1002.02 1002.71 1003.04 1003.13 1004.32 1005.54 1006.00 1006.77 1007.39 1008.57 1009.32 1009.57 1009.99 1011.13 1012.29 1014.20 1014.35 1014.64 1014.79
1003.83 1003.72 1003.80 1003.07 1002.24 1001.77 1001.63 1002.16 1002.28 1002.27 1002.51 1002.79 1002.72 1002.39 1001.97 1001.11 1001.21 1000.94 1000.72 1001.10 1001.92 1002.08 1002.11 1002.28 1002.59 1002.77 1003.06 1003.53 1004.18 1004.70 1005.48 1006.12 1006.82 1007.59 1008.95 1009.39 1009.75 1010.36 1011.38 1011.79 1012.95 1013.29 1013.80 1013.97
1004.08 1004.24 1003.80 1002.94 1002.67 1002.51 1002.25 1002.19 1002.24 1002.67 1003.05 1003.00 1002.65 1002.46 1002.11 1001.45 1001.50 1001.22 1000.78 1001.18 1001.96 1002.37 1002.74 1002.84 1003.00 1003.15 1003.43 1003.90 1004.30 1004.65 1005.45 1006.06 1006.86 1007.89 1008.77 1009.74 1010.20 1010.94 1011.38 1011.20 1011.61 1012.36 1013.03 1013.39
1004.73 1004.29 1003.86 1002.74 1002.93 1002.60 1002.42 1002.30 1002.63 1002.88 1002.87 1002.96 1002.74 1002.53 1002.02 1001.49 1001.88 1001.62 1000.57 1000.86 1001.55 1001.93 1002.56 1002.82 1003.12 1003.40 1003.70 1003.93 1004.06 1004.66 1005.44 1005.97 1006.97 1007.82 1008.54 1009.14 1009.82 1010.61 1010.93 1010.88 1011.65 1012.75 1013.26 1013.45
Thickness
5856 5843 5837 5856 5862 5860 5851 5841 5837 5852 5861 5846 5848 5849 5854 5847 5841 5835 5831 5829 5828 5826 5827 5824 5817 5813 5810 5806 5800 5795 5790 5787 5780 5776 5773 5772 5771 5771 5771 5767 5763 5761 5761 5760
5836 5833 5863 5869 5862 5851 5848 5839 5839 5854 5859 5848 5854 5852 5865 5859 5848 5848 5841 5836 5836 5835 5832 5825 5820 5816 5812 5807 5802 5796 5792 5788 5782 5781 5774 5776 5772 5772 5768 5763 5758 5759 5759 5759
5829 5849 5860 5849 5846 5841 5848 5841 5840 5835 5855 5864 5854 5864 5859 5866 5861 5857 5854 5851 5848 5844 5839 5834 5827 5823 5820 5814 5809 5803 5799 5794 5789 5787 5777 5772 5771 5766 5760 5756 5756 5757 5758 5756
5832 5852 5837 5837 5836 5847 5833 5868 5846 5841 5838 5831 5859 5826 5866 5864 5855 5854 5855 5855 5854 5848 5849 5847 5838 5834 5831 5826 5819 5813 5806 5800 5795 5790 5785 5779 5775 5769 5766 5761 5761 5758 5759 5758
5822 5823 5825 5823 5835 5850 5836 5851 5841 5841 5837 5844 5847 5833 5865 5872 5857 5859 5862 5863 5863 5861 5854 5853 5850 5847 5845 5838 5828 5822 5813 5806 5802 5796 5794 5786 5781 5781 5777 5771 5766 5763 5761 5762
5823 5834 5832 5837 5843 5845 5853 5836 5836 5840 5834 5811 5846 5842 5852 5871 5871 5875 5880 5874 5870 5868 5864 5861 5860 5857 5850 5846 5836 5828 5818 5811 5807 5800 5797 5793 5787 5783 5780 5775 5770 5767 5763 5762
5812 5812 5829 5834 5822 5837 5834 5830 5805 5801 5807 5807 5863 5833 5854 5883 5890 5894 5885 5885 5882 5878 5872 5863 5861 5857 5851 5846 5838 5833 5823 5814 5811 5805 5800 5796 5792 5786 5781 5777 5776 5773 5771 5768
5786 5791 5816 5833 5823 5824 5825 5827 5813 5784 5803 5825 5853 5816 5849 5888 5896 5900 5892 5887 5888 5881 5878 5870 5864 5862 5854 5848 5842 5837 5827 5818 5815 5809 5803 5798 5793 5790 5787 5781 5783 5777 5774 5768
5787 5786 5820 5822 5831 5828 5821 5804 5840 5821 5837 5821 5839 5853 5863 5881 5887 5895 5890 5888 5883 5881 5881 5876 5872 5869 5860 5852 5846 5841 5831 5822 5816 5811 5805 5799 5795 5791 5787 5782 5776 5774 5768 5760
5792 5769 5811 5818 5820 5822 5817 5832 5803 5814 5783 5787 5824 5830 5834 5859 5869 5885 5886 5885 5885 5884 5882 5881 5877 5869 5864 5856 5850 5843 5834 5827 5822 5818 5811 5805 5798 5793 5788 5779 5772 5765 5758 5754
5788 5781 5791 5801 5801 5807 5805 5800 5811 5826 5826 5804 5804 5828 5879 5862 5873 5879 5884 5882 5886 5882 5882 5881 5877 5871 5864 5859 5852 5843 5836 5830 5824 5819 5813 5806 5799 5793 5784 5776 5768 5761 5752 5746
5778 5778 5773 5792 5815 5816 5817 5815 5819 5799 5792 5808 5811 5824 5882 5871 5876 5877 5877 5880 5887 5886 5883 5882 5877 5871 5861 5855 5850 5844 5838 5831 5828 5822 5812 5805 5797 5787 5781 5775 5771 5764 5756 5747
5771 5771 5758 5783 5798 5802 5795 5812 5816 5824 5826 5800 5797 5814 5872 5871 5865 5871 5872 5878 5880 5881 5880 5879 5875 5867 5857 5851 5846 5842 5838 5834 5833 5823 5814 5805 5797 5789 5780 5771 5763 5758 5750 5743
5754 5767 5761 5760 5776 5785 5776 5791 5802 5804 5797 5802 5808 5817 5837 5849 5855 5862 5865 5870 5874 5875 5878 5877 5873 5865 5857 5852 5847 5845 5842 5838 5834 5826 5817 5803 5796 5788 5782 5769 5759 5752 5747 5739
5755 5740 5758 5765 5773 5779 5778 5782 5789 5787 5799 5792 5813 5819 5830 5842 5838 5843 5849 5858 5864 5869 5874 5874 5871 5867 5857 5853 5848 5845 5844 5839 5833 5820 5808 5795 5786 5774 5769 5768 5756 5747 5741 5735
5753 5732 5743 5738 5761 5770 5767 5786 5795 5795 5797 5796 5805 5805 5839 5837 5837 5838 5843 5849 5854 5864 5866 5870 5868 5865 5858 5855 5850 5846 5841 5833 5825 5812 5801 5792 5782 5771 5762 5760 5752 5745 5739 5732
5733 5734 5732 5724 5752 5759 5744 5776 5795 5794 5803 5798 5787 5813 5818 5819 5824 5831 5837 5842 5846 5854 5865 5865 5864 5864 5861 5859 5852 5843 5834 5826 5817 5808 5798 5788 5777 5763 5752 5747 5741 5739 5735 5728
5729 5726 5726 5720 5732 5708 5765 5790 5788 5785 5795 5800 5800 5806 5807 5814 5825 5834 5833 5836 5840 5847 5856 5863 5863 5863 5858 5856 5846 5836 5828 5815 5807 5798 5790 5783 5770 5757 5748 5741 5733 5726 5725 5720
5740 5725 5717 5711 5720 5740 5760 5773 5768 5769 5779 5790 5789 5794 5803 5816 5831 5817 5830 5835 5839 5845 5854 5861 5865 5862 5855 5849 5838 5825 5816 5809 5801 5789 5781 5770 5759 5750 5744 5738 5730 5722 5716 5714
5736 5729 5717 5719 5705 5708 5754 5759 5765 5768 5753 5784 5781 5781 5785 5801 5807 5805 5819 5827 5835 5846 5854 5857 5859 5855 5845 5839 5826 5815 5810 5802 5793 5780 5769 5757 5743 5732 5727 5724 5724 5720 5711 5705
5712 5711 5706 5715 5709 5731 5759 5758 5759 5725 5744 5760 5766 5769 5772 5773 5778 5791 5805 5812 5824 5835 5841 5846 5846 5841 5832 5823 5818 5811 5804 5796 5789 5779 5769 5760 5743 5722 5718 5708 5707 5711 5708 5702
5707 5706 5715 5714 5707 5704 5747 5745 5728 5739 5748 5746 5750 5759 5761 5770 5779 5785 5791 5792 5800 5813 5821 5827 5824 5819 5815 5813 5812 5804 5798 5793 5786 5773 5761 5761 5765 5729 5718 5704 5695 5700 5700 5694
5692 5711 5708 5719 5722 5727 5735 5732 5739 5738 5733 5734 5728 5743 5753 5760 5768 5771 5780 5781 5778 5787 5796 5801 5802 5800 5799 5801 5804 5791 5784 5783 5776 5770 5758 5748 5744 5736 5719 5710 5692 5693 5691 5689
5705 5712 5694 5700 5717 5720 5726 5726 5727 5728 5723 5722 5726 5733 5736 5748 5754 5760 5771 5774 5768 5772 5776 5781 5783 5785 5785 5787 5783 5780 5777 5774 5766 5758 5746 5741 5733 5719 5710 5707 5698 5694 5688 5686
5695 5687 5688 5692 5704 5705 5710 5713 5715 5713 5710 5708 5716 5719 5725 5728 5738 5748 5760 5763 5759 5760 5761 5765 5768 5772 5772 5773 5772 5773 5768 5764 5756 5746 5739 5730 5722 5712 5704 5706 5702 5693 5686 5684
5676 5671 5667 5676 5690 5689 5690 5700 5702 5697 5698 5700 5702 5706 5717 5726 5724 5735 5751 5756 5755 5755 5754 5755 5757 5758 5759 5761 5762 5760 5756 5753 5744 5736 5730 5725 5718 5707 5700 5699 5691 5679 5673 5674